Location: Unspecified
(50.0000°N, 15.0000°E)
Time: 04:42:17
(UTC+02:00)

ISS - Pass Details

Date: 17 September 2021
Orbit: 417 x 423 km, 51.6° (Epoch: 27 October)

Event Time Altitude Azimuth Distance (km) Brightness Sun altitude
Rises 21:33:44 0° 242° (WSW) 2,358 0.4 -22.7°
Reaches altitude 10° 21:35:50 10° 240° (WSW) 1,498 -0.7 -23.0°
Enters shadow 21:37:03 21° 236° (SW) 1,018 -1.6 -23.1°
